Hourly Weather Holmy

Today, 11 April, Sunday

Time Temperature Precipitation Wind Pressure Humidity
00:00 +4°C° 0 mm 3 mps 756 mmHg 69%
01:00 +3°C° 0 mm 3 mps 756 mmHg 71%
02:00 +3°C° 0 mm 3 mps 756 mmHg 73%
03:00 +3°C° 0 mm 3 mps 757 mmHg 74%
04:00 +3°C° 0 mm 2 mps 757 mmHg 74%
05:00 +3°C° 0 mm 2 mps 757 mmHg 75%
06:00 +5°C° 0 mm 2 mps 757 mmHg 69%
07:00 +5°C° 0 mm 3 mps 758 mmHg 64%
08:00 +8°C° 0 mm 3 mps 758 mmHg 58%
09:00 +10°C° 0 mm 3 mps 758 mmHg 52%
10:00 +11°C° 0 mm 3 mps 758 mmHg 47%
11:00 +13°C° 0 mm 3 mps 758 mmHg 42%
12:00 +14°C° 0 mm 3 mps 758 mmHg 40%
13:00 +14°C° 0 mm 3 mps 758 mmHg 39%
14:00 +16°C° 0 mm 3 mps 758 mmHg 37%
15:00 +16°C° 0 mm 2 mps 758 mmHg 39%
16:00 +16°C° 0 mm 2 mps 758 mmHg 41%
17:00 +15°C° 0 mm 2 mps 758 mmHg 43%
18:00 +14°C° 0 mm 2 mps 758 mmHg 48%
19:00 +12°C° 0 mm 2 mps 758 mmHg 53%
20:00 +9°C° 0 mm 2 mps 758 mmHg 59%
21:00 +9°C° 0 mm 2 mps 759 mmHg 61%
22:00 +8°C° 0 mm 2 mps 759 mmHg 63%
23:00 +7°C° 0 mm 2 mps 759 mmHg 65%

Tomorrow, 12 April, Monday

Time Temperature Precipitation Wind Pressure Humidity
00:00 +7°C° 0 mm 2 mps 759 mmHg 67%
01:00 +6°C° 0 mm 2 mps 759 mmHg 68%
02:00 +6°C° 0 mm 2 mps 759 mmHg 70%
03:00 +5°C° 0 mm 2 mps 758 mmHg 71%
04:00 +5°C° 0 mm 2 mps 758 mmHg 73%
05:00 +4°C° 0 mm 2 mps 758 mmHg 74%
06:00 +5°C° 0 mm 3 mps 758 mmHg 68%
07:00 +7°C° 0 mm 3 mps 758 mmHg 63%
08:00 +9°C° 0 mm 3 mps 757 mmHg 57%
09:00 +10°C° 0 mm 3 mps 757 mmHg 51%
10:00 +12°C° 0 mm 3 mps 756 mmHg 46%
11:00 +13°C° 0 mm 3 mps 756 mmHg 40%
12:00 +14°C° 0 mm 3 mps 756 mmHg 46%
13:00 +14°C° 0 mm 4 mps 755 mmHg 51%
14:00 +14°C° 0 mm 4 mps 755 mmHg 56%
15:00 +13°C° 0.2 mm 3 mps 755 mmHg 65%
16:00 +12°C° 0.2 mm 3 mps 755 mmHg 74%
17:00 +10°C° 0.2 mm 3 mps 754 mmHg 83%
18:00 +10°C° 0.1 mm 3 mps 755 mmHg 85%
19:00 +10°C° 0.1 mm 2 mps 755 mmHg 87%
20:00 +10°C° 0.1 mm 2 mps 755 mmHg 89%
21:00 +9°C° 0 mm 2 mps 754 mmHg 89%
22:00 +10°C° 0 mm 1 mps 754 mmHg 89%
23:00 +10°C° 0 mm 1 mps 754 mmHg 90%

Day after tomorrow, 13 April, Tuesday

Time Temperature Precipitation Wind Pressure Humidity
00:00 +10°C° 0 mm 1 mps 754 mmHg 90%
01:00 +10°C° 0 mm 1 mps 753 mmHg 90%
02:00 +10°C° 0 mm 1 mps 753 mmHg 90%
03:00 +9°C° 0 mm 2 mps 753 mmHg 91%
04:00 +9°C° 0 mm 2 mps 753 mmHg 92%
05:00 +9°C° 0 mm 2 mps 753 mmHg 93%
06:00 +10°C° 0 mm 2 mps 753 mmHg 88%
07:00 +12°C° 0 mm 2 mps 752 mmHg 84%
08:00 +13°C° 0 mm 2 mps 752 mmHg 80%
09:00 +13°C° 0 mm 3 mps 752 mmHg 76%
10:00 +14°C° 0 mm 3 mps 752 mmHg 72%
11:00 +16°C° 0 mm 3 mps 752 mmHg 67%
12:00 +16°C° 0 mm 3 mps 752 mmHg 67%
13:00 +17°C° 0 mm 3 mps 752 mmHg 67%
14:00 +17°C° 0 mm 3 mps 752 mmHg 66%
15:00 +16°C° 0 mm 3 mps 751 mmHg 70%
16:00 +14°C° 0 mm 3 mps 751 mmHg 74%
17:00 +14°C° 0 mm 3 mps 751 mmHg 78%
18:00 +13°C° 0 mm 3 mps 751 mmHg 80%
19:00 +12°C° 0 mm 3 mps 751 mmHg 82%
20:00 +12°C° 0 mm 3 mps 751 mmHg 85%
21:00 +11°C° 0 mm 3 mps 751 mmHg 87%
22:00 +11°C° 0 mm 3 mps 751 mmHg 90%
23:00 +10°C° 0 mm 3 mps 751 mmHg 92%

14 April, Wednesday

Time Temperature Precipitation Wind Pressure Humidity
00:00 +10°C° 0 mm 3 mps 751 mmHg 92%
01:00 +10°C° 0 mm 3 mps 750 mmHg 91%
02:00 +10°C° 0 mm 3 mps 750 mmHg 90%
03:00 +10°C° 0 mm 3 mps 750 mmHg 90%
04:00 +10°C° 0 mm 3 mps 750 mmHg 89%
05:00 +10°C° 0 mm 3 mps 750 mmHg 88%
06:00 +11°C° 0 mm 3 mps 750 mmHg 85%
07:00 +11°C° 0 mm 3 mps 750 mmHg 82%
08:00 +12°C° 0 mm 3 mps 750 mmHg 79%
09:00 +13°C° 0 mm 3 mps 750 mmHg 73%
10:00 +14°C° 0 mm 3 mps 750 mmHg 68%
11:00 +14°C° 0 mm 3 mps 750 mmHg 62%
12:00 +16°C° 0.1 mm 3 mps 750 mmHg 59%
13:00 +16°C° 0.1 mm 3 mps 749 mmHg 57%
14:00 +17°C° 0.1 mm 3 mps 749 mmHg 54%
15:00 +17°C° 0 mm 2 mps 749 mmHg 56%
16:00 +16°C° 0 mm 2 mps 749 mmHg 58%
17:00 +16°C° 0 mm 1 mps 748 mmHg 59%
18:00 +15°C° 0 mm 1 mps 748 mmHg 63%
19:00 +14°C° 0 mm 1 mps 748 mmHg 67%
20:00 +13°C° 0 mm 1 mps 748 mmHg 71%
21:00 +13°C° 1.4 mm 1 mps 748 mmHg 78%
22:00 +12°C° 1.4 mm 1 mps 748 mmHg 85%
23:00 +12°C° 1.4 mm 1 mps 748 mmHg 92%

15 April, Thursday

Time Temperature Precipitation Wind Pressure Humidity
00:00 +11°C° 1.2 mm 1 mps 747 mmHg 92%
01:00 +10°C° 1.2 mm 2 mps 747 mmHg 92%
02:00 +10°C° 1.2 mm 3 mps 747 mmHg 92%
03:00 +10°C° 1 mm 3 mps 747 mmHg 92%
04:00 +10°C° 1 mm 3 mps 747 mmHg 91%
05:00 +8°C° 1 mm 4 mps 747 mmHg 90%
06:00 +10°C° 0.2 mm 4 mps 747 mmHg 87%
07:00 +10°C° 0.2 mm 3 mps 747 mmHg 84%
08:00 +11°C° 0.2 mm 3 mps 748 mmHg 80%
09:00 +11°C° 0.1 mm 3 mps 748 mmHg 76%
10:00 +12°C° 0.1 mm 3 mps 748 mmHg 71%
11:00 +14°C° 0.1 mm 2 mps 748 mmHg 66%
12:00 +15°C° 0.1 mm 2 mps 748 mmHg 61%
13:00 +16°C° 0.1 mm 2 mps 748 mmHg 56%
14:00 +17°C° 0.1 mm 2 mps 748 mmHg 50%
15:00 +16°C° 0.1 mm 2 mps 748 mmHg 55%
16:00 +16°C° 0.1 mm 1 mps 748 mmHg 59%
17:00 +15°C° 0.1 mm 1 mps 748 mmHg 64%
18:00 +14°C° 0.1 mm 1 mps 748 mmHg 68%
19:00 +13°C° 0.1 mm 1 mps 748 mmHg 72%
20:00 +12°C° 0.1 mm 2 mps 748 mmHg 76%
21:00 +12°C° 0 mm 2 mps 748 mmHg 79%
22:00 +10°C° 0 mm 2 mps 748 mmHg 81%
23:00 +10°C° 0 mm 2 mps 748 mmHg 83%

16 April, Friday

Time Temperature Precipitation Wind Pressure Humidity
00:00 +9°C° 0.1 mm 2 mps 748 mmHg 86%
01:00 +9°C° 0.1 mm 3 mps 748 mmHg 88%
02:00 +9°C° 0.1 mm 3 mps 748 mmHg 90%
03:00 +7°C° 0 mm 4 mps 748 mmHg 91%
04:00 +7°C° 0 mm 5 mps 748 mmHg 91%
05:00 +7°C° 0 mm 5 mps 748 mmHg 92%
06:00 +7°C° 0 mm 6 mps 748 mmHg 90%
07:00 +7°C° 0 mm 6 mps 749 mmHg 89%
08:00 +7°C° 0 mm 6 mps 749 mmHg 87%
09:00 +7°C° 0.8 mm 6 mps 749 mmHg 86%
10:00 +7°C° 0.8 mm 6 mps 749 mmHg 85%
11:00 +6°C° 0.8 mm 7 mps 750 mmHg 84%
12:00 +8°C° 0 mm 7 mps 750 mmHg 80%
13:00 +8°C° 0 mm 7 mps 750 mmHg 77%
14:00 +9°C° 0 mm 8 mps 751 mmHg 74%
15:00 +9°C° 0 mm 8 mps 751 mmHg 73%
16:00 +7°C° 0 mm 8 mps 752 mmHg 71%
17:00 +7°C° 0 mm 8 mps 752 mmHg 69%
18:00 +6°C° 0 mm 8 mps 753 mmHg 68%
19:00 +6°C° 0 mm 8 mps 753 mmHg 67%
20:00 +5°C° 0 mm 8 mps 754 mmHg 66%
21:00 +5°C° 0 mm 8 mps 754 mmHg 63%
22:00 +5°C° 0 mm 7 mps 755 mmHg 59%
23:00 +5°C° 0 mm 7 mps 755 mmHg 56%
Show more